Flag for USA

Past Weather in McMinnville, Tennessee, USA — Yesterday and Last 2 Weeks

Now
57 °F

Passing clouds.


Feels Like: 57 °F
Forecast: 79 / 58 °F
Wind: No wind

Location: Bethany
Current Time: Oct 20, 2020 at 10:57:09 pm
Latest Report: Oct 20, 2020 at 10:35 pm
Visibility: 9 mi
Pressure30.15 "Hg
Humidity: 94%
Dew Point: 55 °F
Location of McMinnvilleLocation

Past Weather in McMinnville — Graph

°F

McMinnville Temperature Yesterday

Maximum temperature yesterday: 75 °F (at 12:55 pm)
Minimum temperature yesterday: 52 °F (at 6:55 am)
Average temperature yesterday: 65 °F

High & Low Weather Summary for the Past Weeks

 TemperatureHumidityPressure
High81 °F (Oct 12, 2:55 pm)100% (Oct 5, 9:55 pm)30.36 "Hg (Oct 5, 9:55 pm)
Low32 °F (Oct 17, 4:55 am)22% (Oct 17, 2:35 pm)29.75 "Hg (Oct 11, 3:35 am)
Average62 °F77%30.08 "Hg
* Reported Oct 5 9:15 pm — Oct 20 9:35 pm, McMinnville. Weather by CustomWeather, © 2020

Note: Actual official high and low records may vary slightly from our data, if they occured in-between our weather recording intervals... More about our weather records

McMinnville Weather History for the Previous 24 Hours

Scroll right to see more
 ConditionsComfort  
Time TempWeatherWind HumidityBarometerVisibility
9:35 pm
Tue, Oct 20
57 °FPassing clouds.No wind100%30.15 "Hg10 mi
9:15 pm59 °FFog.No wind94%30.14 "Hg5 mi
8:55 pm59 °FFog.No wind94%30.14 "Hg6 mi
8:35 pm59 °FClear.No wind94%30.13 "Hg10 mi
8:15 pm61 °FClear.No wind94%30.14 "Hg10 mi
7:55 pm61 °FClear.No wind94%30.14 "Hg10 mi
7:15 pm64 °FClear.No wind83%30.14 "Hg10 mi
6:55 pm64 °FClear.No wind88%30.14 "Hg10 mi
6:35 pm68 °FClear.No wind78%30.14 "Hg10 mi
6:15 pm68 °FClear.3 mph78%30.13 "Hg10 mi
5:55 pm72 °FSunny.No wind69%30.13 "Hg10 mi
5:35 pm75 °FSunny.No wind61%30.13 "Hg10 mi
5:15 pm77 °FSunny.No wind57%30.13 "Hg10 mi
4:55 pm77 °FSunny.No wind57%30.13 "Hg10 mi
4:35 pm77 °FSunny.No wind57%30.14 "Hg10 mi
4:15 pm79 °FSunny.No wind54%30.14 "Hg10 mi
3:55 pm79 °FSunny.No wind54%30.14 "Hg10 mi
3:35 pm79 °FSunny.3 mph54%30.14 "Hg10 mi
3:15 pm77 °FSunny.No wind57%30.15 "Hg10 mi
2:55 pm77 °FSunny.No wind57%30.15 "Hg10 mi
2:35 pm77 °FScattered clouds.5 mph57%30.16 "Hg10 mi
2:15 pm77 °FOvercast.5 mph54%30.16 "Hg10 mi
1:55 pm77 °FOvercast.3 mph54%30.17 "Hg10 mi
1:35 pm75 °FOvercast.No wind57%30.18 "Hg10 mi
1:15 pm75 °FOvercast.5 mph57%30.18 "Hg10 mi
12:55 pm75 °FOvercast.5 mph57%30.19 "Hg10 mi
12:35 pm73 °FOvercast.6 mph61%30.20 "Hg10 mi
12:15 pm73 °FOvercast.8 mph61%30.20 "Hg10 mi
11:55 am73 °FMostly cloudy.3 mph61%30.21 "Hg10 mi
11:35 am72 °FMostly cloudy.7 mph65%30.22 "Hg10 mi
11:15 am73 °FCloudy.6 mph61%30.22 "Hg10 mi
10:55 am72 °FPartly sunny.7 mph65%30.23 "Hg10 mi
10:35 am72 °FBroken clouds.5 mph65%30.23 "Hg10 mi
10:15 am70 °FMostly cloudy.6 mph69%30.23 "Hg10 mi
9:55 am70 °FOvercast.8 mph69%30.23 "Hg10 mi
9:35 am68 °FMostly cloudy.5 mph73%30.22 "Hg10 mi
9:15 am68 °FOvercast.5 mph73%30.23 "Hg10 mi
8:55 am66 °FPartly sunny.5 mph78%30.22 "Hg10 mi
8:35 am63 °FScattered clouds.No wind88%30.22 "Hg10 mi
8:15 am61 °FScattered clouds.No wind94%30.22 "Hg10 mi
7:55 am57 °FSunny.No wind100%30.21 "Hg8 mi
7:35 am55 °FFog.No wind94%30.21 "Hg3 mi
6:55 am54 °FFog.No wind100%30.19 "Hg1 mi
6:15 am54 °FFog.No wind94%30.18 "Hg1 mi
5:55 am54 °FFog.No wind100%30.17 "Hg4 mi
5:35 am54 °FFog.No wind100%30.17 "Hg5 mi
5:15 am55 °FFog.No wind94%30.16 "Hg6 mi
4:55 am55 °FFog.No wind94%30.16 "Hg2 mi
4:35 am55 °FFog.3 mph94%30.15 "Hg4 mi
4:15 am55 °FClear.No wind94%30.14 "Hg8 mi
3:55 am55 °FFog.No wind100%30.14 "Hg5 mi
3:35 am55 °FFog.No wind100%30.14 "Hg4 mi
3:15 am55 °FFog.No wind94%30.14 "Hg4 mi
2:55 am55 °FClear.No wind100%30.13 "Hg8 mi
2:35 am55 °FClear.No wind100%30.13 "Hg9 mi
1:55 am59 °FClear.No wind94%30.13 "Hg10 mi
1:35 am57 °FClear.No wind94%30.13 "Hg10 mi
1:15 am57 °FClear.No wind94%30.13 "Hg10 mi
12:55 am57 °FClear.No wind94%30.14 "Hg10 mi
12:35 am57 °FClear.No wind94%30.15 "Hg10 mi
12:15 am57 °FClear.No wind100%30.15 "Hg10 mi
11:55 pm
Mon, Oct 19
57 °FClear.No wind100%30.15 "Hg8 mi
11:35 pm59 °FClear.No wind94%30.16 "Hg10 mi
11:15 pm59 °FClear.No wind94%30.17 "Hg10 mi
10:55 pm61 °FClear.No wind94%30.16 "Hg10 mi
10:35 pm61 °FClear.No wind94%30.16 "Hg10 mi
10:15 pm59 °FClear.No wind94%30.16 "Hg10 mi
Weather by CustomWeather, © 2020

See weather overview